Weather History for Metropolis, IL

Change the Weather History Date:

Wednesday, August 28, 2013

  Actual Average (KPAH) Record (KPAH)
Temperature  
Mean Temperature 81 °F 76 °F  
Max Temperature 90 °F 88 °F 99 °F (2007)
Min Temperature 72 °F 64 °F 48 °F (1967)
Degree Days  
Heating Degree Days 0 0  
Month to date heating degree days 0  
Since 1 June heating degree days 4  
Since 1 July heating degree days 0  
Cooling Degree Days 16 11  
Month to date cooling degree days 354  
Year to date cooling degree days 1277  
Since 1 June cooling degree days 1105  
Growing Degree Days 31 (Base 50)    
Moisture  
Dew Point 71 °F    
Average Humidity 76    
Maximum Humidity 100    
Minimum Humidity 46    
Precipitation  
Precipitation 0.00 in 0.09 in 1.55 in (1951)
Month to date precipitation 2.50  
Year to date precipitation 32.22  
Snow  
Snow 0.00 in 0.00 in 0.00 in (2002)
Month to date snowfall 0.0  
Since 1 June snowfall 0.0  
Since 1 July snowfall 0.0  
Snow Depth -    
Sea Level Pressure  
Sea Level Pressure 30.03 in    
Wind  
Wind Speed 3 mph (WSW)    
Max Wind Speed 9 mph    
Max Gust Speed -    
Visibility 10 miles    
Events      
T = Trace of Precipitation, MM = Missing Value Source: NWS Daily Summary

Daily Weather History Graph

Daily Weather History Graph

Search for Another Location

Airport:

Trip Planner

Search our weather history database for the weather conditions in past years. The results will help you decide how hot, cold, wet, or windy it might be!

Date:

Astronomy

Aug. 28, 2013 Rise Set
Actual Time 6:22 AM CDT 7:29 PM CDT
Civil Twilight 5:55 AM CDT 7:55 PM CDT
Nautical Twilight 5:23 AM CDT 8:27 PM CDT
Astronomical Twilight 4:50 AM CDT 9:00 PM CDT
Moon No Moon Rise 2:02 PM CDT (8/28)
Length of Visible Light 14h 00m
Length of Day
13h 06m
Waning Gibbous, 47% of the Moon is Illuminated
Aug 28
Waning Gibbous
Sep 5
New
Sep 12
First Quarter
Sep 19
Full
Sep 26
Last Quarter

Hourly Weather History & Observations

Time (CDT) Temp. Heat Index Dew Point Humidity Pressure Visibility Wind Dir Wind Speed Gust Speed Precip Events Conditions
12:15 AM 76.5 °F - 70.3 °F 81% 30.05 in 10.0 mi SW 4.6 mph - N/A   Mostly Cloudy
12:35 AM 76.6 °F - 70.2 °F 80% 30.04 in 10.0 mi SW 5.8 mph - N/A   Mostly Cloudy
12:55 AM 76.3 °F - 70.3 °F 82% 30.04 in 10.0 mi SW 4.6 mph - N/A   Mostly Cloudy
1:15 AM 75.9 °F - 70.2 °F 82% 30.03 in 10.0 mi SW 4.6 mph - N/A   Scattered Clouds
1:35 AM 75.6 °F - 70.3 °F 84% 30.03 in 10.0 mi SW 4.6 mph - N/A   Clear
1:55 AM 75.2 °F - 70.7 °F 86% 30.03 in 10.0 mi WSW 3.5 mph - N/A   Clear
2:15 AM 75.2 °F - 70.3 °F 85% 30.02 in 10.0 mi WSW 4.6 mph - N/A   Clear
2:35 AM 75.4 °F - 70.0 °F 83% 30.02 in 10.0 mi WSW 3.5 mph - N/A   Clear
2:55 AM 75.2 °F - 69.8 °F 83% 30.02 in 10.0 mi WSW 4.6 mph - N/A   Clear
3:15 AM 74.7 °F - 69.8 °F 85% 30.02 in 10.0 mi WSW 4.6 mph - N/A   Clear
3:35 AM 74.1 °F - 70.7 °F 89% 30.03 in 10.0 mi WSW 3.5 mph - N/A   Clear
3:55 AM 73.9 °F - 70.7 °F 90% 30.03 in 10.0 mi Calm Calm - N/A   Scattered Clouds
4:15 AM 73.4 °F - 71.1 °F 92% 30.03 in 10.0 mi Calm Calm - N/A   Scattered Clouds
4:35 AM 73.0 °F - 72.0 °F 96% 30.03 in 7.0 mi Calm Calm - N/A   Mostly Cloudy
4:55 AM 72.1 °F - 72.0 °F 99% 30.04 in 7.0 mi Calm Calm - N/A   Overcast
5:15 AM 73.0 °F - 72.0 °F 96% 30.04 in 7.0 mi Calm Calm - N/A   Overcast
5:35 AM 73.0 °F - 72.0 °F 96% 30.04 in 7.0 mi Calm Calm - N/A   Scattered Clouds
5:55 AM 72.7 °F - 71.6 °F 96% 30.05 in 7.0 mi Calm Calm - N/A   Clear
6:15 AM 72.5 °F - 71.4 °F 96% 30.06 in 10.0 mi Calm Calm - N/A   Clear
6:35 AM 72.5 °F - 71.4 °F 96% 30.06 in 7.0 mi SW 3.5 mph - N/A   Clear
6:55 AM 72.5 °F - 71.6 °F 97% 30.06 in 10.0 mi Calm Calm - N/A   Clear
7:15 AM 73.6 °F - 71.8 °F 94% 30.06 in 10.0 mi SW 3.5 mph - N/A   Clear
7:35 AM 74.7 °F - 72.3 °F 92% 30.06 in 10.0 mi Calm Calm - N/A   Clear
7:55 AM 75.6 °F - 71.8 °F 88% 30.06 in 10.0 mi WSW 3.5 mph - N/A   Clear
8:15 AM 76.3 °F - 69.8 °F 80% 30.06 in 10.0 mi SW 4.6 mph - N/A   Clear
8:35 AM 77.2 °F - 70.0 °F 78% 30.06 in 10.0 mi WSW 4.6 mph - N/A   Clear
8:55 AM 78.3 °F - 69.6 °F 75% 30.06 in 10.0 mi WSW 6.9 mph - N/A   Clear
9:15 AM 79.5 °F - 70.5 °F 74% 30.06 in 10.0 mi WSW 5.8 mph - N/A   Clear
9:35 AM 80.2 °F 83.3 °F 69.8 °F 70% 30.06 in 10.0 mi WSW 5.8 mph - N/A   Clear
9:55 AM 81.7 °F 85.6 °F 70.7 °F 69% 30.06 in 10.0 mi WSW 5.8 mph - N/A   Clear
10:15 AM 82.4 °F 86.5 °F 70.5 °F 67% 30.06 in 10.0 mi West 4.6 mph - N/A   Clear
10:35 AM 83.3 °F 87.9 °F 70.9 °F 66% 30.06 in 10.0 mi WSW 5.8 mph - N/A   Clear
10:55 AM 84.0 °F 89.0 °F 71.1 °F 65% 30.06 in 10.0 mi West 4.6 mph - N/A   Clear
11:15 AM 84.7 °F 90.0 °F 71.2 °F 64% 30.06 in 10.0 mi Calm Calm - N/A   Clear
11:35 AM 85.6 °F 91.5 °F 71.6 °F 63% 30.06 in 10.0 mi SW 3.5 mph - N/A   Clear
11:55 AM 86.4 °F 93.8 °F 73.2 °F 65% 30.06 in 10.0 mi SW 4.6 mph - N/A   Clear
12:15 PM 87.1 °F 92.8 °F 71.2 °F 59% 30.05 in 10.0 mi Calm Calm - N/A   Clear
12:35 PM 87.1 °F 93.6 °F 72.0 °F 61% 30.05 in 10.0 mi SSW 3.5 mph - N/A   Clear
12:55 PM 88.0 °F 94.7 °F 71.8 °F 59% 30.04 in 10.0 mi SSW 3.5 mph - N/A   Clear
1:15 PM 88.3 °F 94.1 °F 70.7 °F 56% 30.04 in 10.0 mi SW 4.6 mph - N/A   Clear
1:35 PM 89.2 °F 94.5 °F 70.2 °F 53% 30.04 in 10.0 mi West 5.8 mph - N/A   Clear
1:55 PM 89.2 °F 94.1 °F 69.4 °F 52% 30.03 in 10.0 mi WSW 5.8 mph - N/A   Clear
2:15 PM 89.6 °F 94.7 °F 69.6 °F 52% 30.03 in 10.0 mi WSW 3.5 mph - N/A   Clear
2:35 PM 90.0 °F 95.0 °F 69.8 °F 51% 30.02 in 10.0 mi West 5.8 mph - N/A   Clear
2:55 PM 89.8 °F 92.9 °F 67.1 °F 47% 30.01 in 10.0 mi West 6.9 mph - N/A   Clear
3:15 PM 90.5 °F 95.1 °F 68.7 °F 49% 30.01 in 10.0 mi WNW 9.2 mph - N/A   Clear
3:35 PM 90.7 °F 95.0 °F 68.7 °F 48% 30.01 in 10.0 mi WSW 5.8 mph - N/A   Clear
3:55 PM 89.8 °F 94.2 °F 68.7 °F 50% 30.01 in 10.0 mi SSW 6.9 mph - N/A   Clear
4:15 PM 89.8 °F 93.8 °F 68.2 °F 49% 30.00 in 10.0 mi WSW 8.1 mph - N/A   Scattered Clouds
4:35 PM 89.8 °F 92.9 °F 67.1 °F 47% 30.00 in 10.0 mi WSW 5.8 mph - N/A   Scattered Clouds
4:55 PM 89.8 °F 93.8 °F 68.4 °F 49% 30.00 in 10.0 mi SW 3.5 mph - N/A   Clear
5:15 PM 89.6 °F 92.2 °F 66.6 °F 46% 30.00 in 10.0 mi SW 4.6 mph - N/A   Clear
5:35 PM 88.7 °F 92.6 °F 68.5 °F 51% 30.00 in 10.0 mi WSW 3.5 mph - N/A   Clear
5:55 PM 88.9 °F 93.0 °F 68.5 °F 51% 30.00 in 10.0 mi West 3.5 mph - N/A   Clear
6:15 PM 88.2 °F 91.7 °F 68.0 °F 51% 30.00 in 10.0 mi WSW 3.5 mph - N/A   Clear
6:35 PM 87.3 °F 91.2 °F 68.9 °F 54% 30.00 in 10.0 mi Calm Calm - N/A   Clear
6:55 PM 85.5 °F 90.1 °F 70.0 °F 60% 30.00 in 10.0 mi Calm Calm - N/A   Clear
7:15 PM 82.4 °F 87.4 °F 72.0 °F 71% 30.00 in 10.0 mi Calm Calm - N/A   Clear
7:35 PM 80.4 °F 84.1 °F 71.2 °F 73% 30.01 in 10.0 mi Calm Calm - N/A   Clear
7:55 PM 78.8 °F - 72.3 °F 80% 30.00 in 10.0 mi Calm Calm - N/A   Clear
8:15 PM 77.4 °F - 73.6 °F 88% 30.01 in 10.0 mi Calm Calm - N/A   Clear
8:35 PM 77.2 °F - 72.9 °F 86% 30.02 in 10.0 mi Calm Calm - N/A   Clear
8:55 PM 76.1 °F - 72.5 °F 89% 30.02 in 10.0 mi Calm Calm - N/A   Clear
9:15 PM 75.6 °F - 75.2 °F 99% 30.02 in 10.0 mi Calm Calm - N/A   Clear
9:35 PM 75.6 °F - 74.5 °F 96% 30.02 in 10.0 mi Calm Calm - N/A   Clear
9:55 PM 75.2 °F - 75.0 °F 99% 30.02 in 10.0 mi Calm Calm - N/A   Clear
10:15 PM 74.3 °F - 74.3 °F 100% 30.03 in 10.0 mi Calm Calm - N/A   Clear
10:35 PM 74.3 °F - 74.3 °F 100% 30.02 in 7.0 mi Calm Calm - N/A   Clear
10:55 PM 73.4 °F - 73.4 °F 100% 30.02 in 7.0 mi Calm Calm - N/A   Clear
11:15 PM 73.6 °F - 73.6 °F 100% 30.02 in 7.0 mi Calm Calm - N/A   Clear
11:35 PM 73.4 °F - 73.4 °F 100% 30.02 in 7.0 mi Calm Calm - N/A   Clear
11:55 PM 73.2 °F - 73.2 °F 100% 30.02 in 10.0 mi Calm Calm - N/A   Clear